W3BW-5 Weather Reports


time (UTC)temp
F
wind
direction
speed
knots
gust
knots
rain 1hr
in
rain 24hr
in
rain mn
in
humidity
%
barometer
mb
20260505153308 69 239 7.0 9.6 36.63 0.00 0.00 74 1005.6
20260505152307 69 250 8.7 13.0 36.63 0.00 0.00 75 1005.7
20260505151303 68 255 9.6 14.8 36.63 0.00 0.00 75 1005.9
20260505150308 69 257 9.6 14.8 36.63 0.00 0.00 76 1005.9
20260505140304 66 240 8.7 11.3 36.63 0.00 0.00 81 1006.1
20260505130304 64 240 11.3 14.8 36.63 0.00 0.00 84 1006.4
20260505124304 64 256 11.3 15.6 36.63 0.00 0.00 84 1006.3
20260505123305 64 228 10.4 15.6 36.63 0.00 0.00 85 1006.3
20260505122305 64 262 9.6 12.2 36.63 0.00 0.00 86 1006.3
20260505121302 64 236 8.7 13.0 36.63 0.00 0.00 87 1006.3
20260505120305 63 262 7.8 10.4 36.63 0.00 0.00 88 1006.3
20260505115305 62 260 6.1 8.7 36.63 0.00 0.00 89 1006.2
20260505114305 62 253 6.1 7.8 36.63 0.00 0.00 90 1006.2
20260505113304 62 266 5.2 8.7 36.63 0.00 0.00 91 1006.2
20260505112307 61 263 5.2 7.8 36.63 0.00 0.00 91 1006.1
20260505111302 61 290 5.2 7.8 36.63 0.00 0.00 91 1006.1
20260505110311 61 260 5.2 7.8 36.63 0.00 0.00 92 1005.9
20260505095305 61 257 3.5 6.1 36.63 0.00 0.00 90 1005.3
20260505094305 61 255 3.5 5.2 36.63 0.00 0.00 88 1005.3
20260505093302 61 260 3.5 5.2 36.63 0.00 0.00 90 1005.2
20260505092307 61 260 5.2 7.8 36.63 0.00 0.00 88 1005.3
20260505091302 61 236 5.2 8.7 36.63 0.00 0.00 89 1005.2
20260505090304 61 266 6.1 9.6 36.63 0.00 0.00 89 1005.1
20260505085304 62 259 6.1 8.7 36.63 0.00 0.00 89 1005.1
20260505084307 62 260 5.2 8.7 36.63 0.00 0.00 89 1005.0
20260505083302 62 248 5.2 7.8 36.63 0.00 0.00 89 1005.0
20260505082300 62 233 6.1 9.6 36.63 0.00 0.00 89 1005.0
20260505081302 62 236 6.1 8.7 36.63 0.00 0.00 90 1005.0
20260505075304 62 253 7.8 12.2 36.63 0.00 0.00 90 1005.0
20260505074305 62 239 7.8 12.2 36.63 0.00 0.00 91 1004.9
20260505073302 62 240 7.0 12.2 36.63 0.00 0.00 91 1004.9
20260505072308 62 246 7.0 11.3 36.63 0.00 0.00 92 1004.9
20260505071302 62 239 7.0 11.3 36.63 0.00 0.00 92 1004.9
20260505070304 62 232 7.8 11.3 36.63 0.00 0.00 93 1004.8
20260505065303 62 245 7.0 10.4 36.63 0.00 0.00 92 1004.8
20260505064309 62 248 7.0 9.6 36.63 0.00 0.00 92 1004.8
20260505063303 62 236 7.8 13.0 36.63 0.00 0.00 92 1004.8
20260505062301 61 246 7.0 9.6 36.63 0.00 0.00 93 1004.9
20260505061303 61 242 7.0 10.4 36.63 0.00 0.00 93 1004.8
20260505060304 61 242 7.8 11.3 36.63 0.00 0.00 94 1004.8
20260505055303 61 245 7.8 11.3 36.63 0.00 0.00 93 1004.8
20260505054306 61 262 7.0 10.4 36.63 0.00 0.00 93 1004.9
20260505052301 61 236 7.0 11.3 36.63 0.00 0.00 92 1004.9
20260505051303 61 222 7.0 11.3 36.63 0.00 0.00 91 1004.8
20260505050304 61 226 6.1 8.7 36.63 0.00 0.00 90 1004.9
20260505041303 61 239 5.2 7.0 36.63 0.00 0.00 88 1004.8
20260505040306 61 245 5.2 7.0 36.63 0.00 0.00 88 1004.8
20260505035301 61 236 6.1 7.8 36.63 0.00 0.00 88 1004.7
20260505034305 62 249 5.2 7.8 36.63 0.00 0.00 87 1004.7
20260505033305 62 170 4.3 8.7 36.63 0.00 0.00 87 1004.7
20260505032304 62 226 4.3 7.0 36.63 0.00 0.00 86 1004.7
20260505031303 62 231 5.2 8.7 36.63 0.00 0.00 85 1004.6
20260505030302 62 200 4.3 7.0 36.63 0.00 0.00 85 1004.6
20260505025304 62 221 6.1 10.4 36.63 0.00 0.00 83 1004.6
20260505024304 63 219 6.1 11.3 36.63 0.00 0.00 83 1004.7
20260505023303 63 226 7.0 10.4 36.63 0.00 0.00 81 1004.8
20260505022308 62 225 7.0 10.4 36.63 0.00 0.00 81 1004.7
20260505021308 62 198 6.1 10.4 36.63 0.00 0.00 80 1004.7
20260505015303 63 231 4.3 7.0 36.63 0.00 0.00 77 1004.4
20260505014305 63 224 3.5 6.1 36.63 0.00 0.00 75 1004.5
20260505013302 63 203 3.5 6.1 36.63 0.00 0.00 73 1004.4
20260505012301 63 198 3.5 5.2 36.63 0.00 0.00 72 1004.3
20260505011301 63 224 4.3 6.1 36.63 0.00 0.00 71 1004.3
20260505010304 64 246 3.5 7.0 36.63 0.00 0.00 70 1004.2
20260505005304 64 204 3.5 5.2 36.63 0.00 0.00 69 1004.1
20260505004301 65 233 3.5 6.1 36.63 0.00 0.00 68 1004.0
20260505003302 65 210 2.6 5.2 36.63 0.00 0.00 68 1003.9
20260505002301 65 184 3.5 7.0 36.63 0.00 0.00 67 1003.8
20260505001301 65 222 3.5 6.1 36.63 0.00 0.00 66 1003.9
20260505000301 66 225 5.2 8.7 36.63 0.00 0.00 65 1003.9
20260504235301 67 253 5.2 7.8 36.63 0.00 0.00 65 1003.9
20260504234304 67 222 6.1 11.3 36.63 0.00 0.00 64 1003.8
20260504233303 68 229 6.1 9.6 36.63 0.00 0.00 63 1003.8
20260504232304 68 198 7.8 11.3 36.63 0.00 0.00 61 1003.7
20260504231301 69 232 7.8 14.8 36.63 0.00 0.00 60 1003.6
20260504230307 69 221 7.0 13.0 36.63 0.00 0.00 60 1003.6
20260504225304 70 246 10.4 14.8 36.63 0.00 0.00 56 1003.5
20260504224303 70 260 10.4 15.6 36.63 0.00 0.00 57 1003.4
20260504223303 71 239 8.7 13.0 36.63 0.00 0.00 57 1003.4
20260504222304 70 252 10.4 14.8 36.63 0.00 0.00 60 1003.4
20260504221301 69 252 9.6 17.4 36.63 0.00 0.00 58 1003.5
20260504220311 69 245 8.7 13.9 36.63 0.00 0.00 59 1003.5
20260504215302 67 249 7.8 11.3 36.63 0.00 0.00 59 1003.6
20260504214306 68 245 10.4 18.2 36.63 0.00 0.00 59 1003.7
20260504213304 68 252 9.6 12.2 36.63 0.00 0.00 60 1003.8
20260504212304 68 257 8.7 14.8 36.63 0.00 0.00 60 1003.7
20260504211301 68 262 9.6 15.6 36.63 0.00 0.00 59 1003.8
20260504210306 68 277 10.4 14.8 36.63 0.00 0.00 59 1003.8
20260504205301 67 259 10.4 14.8 36.63 0.00 0.00 60 1003.9
20260504204304 67 269 10.4 14.8 36.63 0.00 0.00 60 1003.8
20260504203307 67 240 11.3 17.4 36.63 0.00 0.00 59 1004.1
20260504202307 67 250 10.4 16.5 36.63 0.00 0.00 60 1004.4
20260504201302 67 281 11.3 17.4 36.63 0.00 0.00 60 1004.4
20260504200306 68 283 11.3 13.9 36.63 0.00 0.00 59 1004.6
20260504195304 67 274 12.2 19.1 36.63 0.00 0.00 60 1004.8
20260504194303 67 253 11.3 15.6 36.63 0.00 0.00 60 1005.0
20260504193303 67 256 8.7 12.2 36.63 0.00 0.00 58 1005.1
20260504192304 67 246 10.4 13.9 36.63 0.00 0.00 62 1005.3
20260504191301 66 277 9.6 15.6 36.63 0.00 0.00 60 1005.2
20260504190307 67 255 11.3 16.5 36.63 0.00 0.00 61 1005.5
20260504185301 67 253 7.8 13.9 36.63 0.00 0.00 62 1005.5
20260504184303 66 222 7.8 14.8 36.63 0.00 0.00 61 1005.7
20260504183303 67 259 8.7 13.0 36.63 0.00 0.00 59 1005.8
20260504182304 67 255 8.7 12.2 36.63 0.00 0.00 60 1005.9
20260504181305 67 260 9.6 14.8 36.63 0.00 0.00 60 1006.2
20260504180305 66 239 7.8 12.2 36.63 0.00 0.00 62 1006.3
20260504175304 65 259 8.7 13.0 36.63 0.00 0.00 61 1006.5
20260504174304 66 274 8.7 11.3 36.63 0.00 0.00 60 1006.3
20260504173303 66 263 7.8 13.9 36.63 0.00 0.00 60 1006.5
20260504172312 67 240 7.8 12.2 36.63 0.00 0.00 63 1006.7
20260504171309 65 239 7.8 12.2 36.63 0.00 0.00 60 1006.9
20260504170309 65 281 7.8 15.6 36.63 0.00 0.00 60 1007.0
20260504160306 64 249 7.8 11.3 36.63 0.00 0.00 66 1008.0